EW8660 Weather Reports


Display with metric or nautical units.
time (UTC)temp
F
wind
direction
speed
MPH
gust
MPH
rain 1hr
in
rain 24hr
in
rain mn
in
humidity
%
barometer
mb
20200406152443 48 162 0.0 2.0 0.00 0.01 0.00 92 1011.0
20200406151939 48 151 0.0 4.0 0.00 0.01 0.00 92 1010.9
20200406151437 47 142 0.0 4.0 0.00 0.01 0.00 93 1010.7
20200406150936 47 146 0.0 1.0 0.00 0.01 0.00 93 1010.6
20200406150436 47 150 0.0 2.0 0.00 0.01 0.00 94 1010.6
20200406145935 47 150 0.0 2.0 0.00 0.01 0.00 94 1010.5
20200406145434 46 153 0.0 0.0 0.00 0.01 0.00 94 1010.3
20200406144929 46 153 0.0 0.0 0.00 0.01 0.00 94 1010.2
20200406144427 46 153 0.0 0.0 0.00 0.01 0.00 94 1010.0
20200406143925 46 153 0.0 0.0 0.00 0.01 0.00 94 1009.9
20200406143424 46 153 0.0 0.0 0.00 0.01 0.00 94 1009.8
20200406142924 45 153 0.0 0.0 0.00 0.01 0.00 94 1009.6
20200406142424 45 153 0.0 0.0 0.00 0.01 0.00 94 1009.5
20200406141919 45 153 0.0 0.0 0.00 0.01 0.00 94 1009.4
20200406141417 45 153 0.0 0.0 0.00 0.01 0.00 94 1009.3
20200406140915 45 153 0.0 0.0 0.00 0.01 0.00 94 1009.2
20200406140412 45 153 0.0 0.0 0.00 0.01 0.00 94 1009.2
20200406135911 45 153 0.0 0.0 0.00 0.01 0.00 94 1009.0
20200406135408 45 153 0.0 0.0 0.00 0.01 0.00 94 1008.9
20200406134908 45 153 0.0 0.0 0.00 0.01 0.00 94 1008.8
20200406134405 45 153 0.0 0.0 0.00 0.01 0.00 94 1008.9
20200406133906 45 153 0.0 0.0 0.00 0.01 0.00 94 1008.9
20200406133407 45 153 0.0 0.0 0.00 0.01 0.00 94 1008.8
20200406132906 44 153 0.0 0.0 0.00 0.01 0.00 94 1008.8
20200406132401 44 153 0.0 0.0 0.00 0.01 0.00 94 1008.7
20200406131858 44 153 0.0 0.0 0.00 0.01 0.00 94 1008.7
20200406131356 44 153 0.0 0.0 0.00 0.01 0.00 94 1008.5
20200406130855 44 153 0.0 0.0 0.00 0.01 0.00 94 1008.4
20200406130354 44 153 0.0 0.0 0.00 0.01 0.00 94 1008.3
20200406125852 44 153 0.0 0.0 0.00 0.01 0.00 94 1008.3
20200406125349 44 153 0.0 0.0 0.00 0.01 0.00 94 1008.2
20200406124848 44 153 0.0 0.0 0.00 0.01 0.00 94 1008.1
20200406124346 44 153 0.0 0.0 0.00 0.01 0.00 94 1008.0
20200406123844 44 153 0.0 0.0 0.00 0.01 0.00 94 1008.0
20200406123344 44 153 0.0 0.0 0.00 0.02 0.00 93 1008.0
20200406122841 44 153 0.0 0.0 0.00 0.02 0.00 93 1007.9
20200406122339 44 153 0.0 0.0 0.00 0.02 0.00 93 1007.8
20200406121837 44 153 0.0 0.0 0.00 0.02 0.00 93 1007.7
20200406121338 44 153 0.0 0.0 0.00 0.02 0.00 93 1007.6
20200406120838 44 153 0.0 0.0 0.00 0.02 0.00 93 1007.5
20200406120338 45 153 0.0 0.0 0.00 0.02 0.00 92 1007.5
20200406115832 45 153 0.0 2.0 0.00 0.02 0.00 93 1007.5
20200406115331 45 153 1.0 3.0 0.00 0.02 0.00 93 1007.4
20200406114827 45 135 1.0 3.0 0.00 0.02 0.00 93 1007.4
20200406114326 45 131 0.0 2.0 0.00 0.02 0.00 93 1007.3
20200406113826 45 140 0.0 2.0 0.00 0.02 0.00 93 1007.3
20200406113319 45 128 0.0 1.0 0.00 0.03 0.00 93 1007.3
20200406112818 45 132 0.0 2.0 0.00 0.03 0.00 92 1007.2
20200406112317 45 121 0.0 2.0 0.00 0.03 0.00 92 1007.2
20200406111817 45 155 0.0 1.0 0.00 0.03 0.00 92 1007.0
20200406111315 45 128 0.0 0.0 0.00 0.03 0.00 92 1007.0
20200406110816 45 248 0.0 0.0 0.00 0.03 0.00 92 1006.9
20200406110309 46 248 0.0 0.0 0.00 0.03 0.00 91 1006.7
20200406105807 46 248 0.0 0.0 0.00 0.03 0.00 92 1006.7
20200406105306 46 248 0.0 0.0 0.00 0.03 0.00 91 1006.6
20200406104805 46 248 0.0 0.0 0.00 0.03 0.00 91 1006.5
20200406104303 46 248 0.0 0.0 0.00 0.03 0.00 91 1006.5
20200406103757 46 248 0.0 0.0 0.00 0.03 0.00 91 1006.5
20200406103256 47 248 0.0 0.0 0.00 0.03 0.00 91 1006.4
20200406102754 47 248 0.0 1.0 0.00 0.03 0.00 91 1006.4
20200406102252 47 248 0.0 2.0 0.00 0.03 0.00 91 1006.4
20200406101752 47 248 0.0 2.0 0.00 0.03 0.00 91 1006.4
20200406101246 47 167 0.0 1.0 0.00 0.03 0.00 91 1006.4
20200406100745 47 154 0.0 0.0 0.00 0.03 0.00 90 1006.4
20200406100242 47 154 0.0 0.0 0.00 0.03 0.00 90 1006.2
20200406095740 47 154 0.0 0.0 0.00 0.03 0.00 90 1006.2
20200406095240 47 154 0.0 0.0 0.00 0.03 0.00 90 1006.1
20200406094734 47 154 0.0 0.0 0.00 0.03 0.00 90 1006.1
20200406094232 47 225 0.0 0.0 0.00 0.03 0.00 89 1005.9
20200406093732 48 225 0.0 0.0 0.00 0.03 0.00 89 1005.9
20200406093234 48 225 0.0 0.0 0.00 0.03 0.00 88 1005.7
20200406092730 48 225 0.0 0.0 0.00 0.03 0.00 89 1005.6
20200406091220 48 225 0.0 0.0 0.00 0.03 0.00 88 1005.5
20200406090720 49 225 0.0 0.0 0.00 0.03 0.00 88 1005.5
20200406090218 49 145 0.0 0.0 0.00 0.03 0.00 87 1005.5
20200406085717 49 145 0.0 0.0 0.00 0.03 0.00 87 1005.4
20200406085212 49 145 0.0 2.0 0.00 0.03 0.00 87 1005.5
20200406084710 49 145 1.0 2.0 0.00 0.03 0.00 87 1005.5
20200406084208 49 157 1.0 3.0 0.00 0.03 0.00 87 1005.3
20200406083706 49 171 0.0 3.0 0.00 0.03 0.00 87 1005.3
20200406083206 49 198 0.0 2.0 0.00 0.03 0.00 88 1005.3
20200406082700 49 172 0.0 2.0 0.00 0.03 0.00 88 1005.4
20200406082158 49 154 0.0 2.0 0.00 0.03 0.00 88 1005.4
20200406081656 49 157 0.0 2.0 0.00 0.03 0.00 88 1005.3
20200406081157 48 148 0.0 2.0 0.00 0.03 0.00 89 1005.2
20200406080658 48 183 0.0 2.0 0.00 0.03 0.00 88 1005.2
20200406080158 48 142 0.0 2.0 0.00 0.03 0.00 87 1005.2
20200406075654 48 314 0.0 1.0 0.00 0.03 0.00 86 1005.1
20200406075152 48 314 0.0 1.0 0.00 0.03 0.00 86 1005.0
20200406074646 48 314 0.0 0.0 0.00 0.03 0.00 86 1004.8
20200406074142 48 314 0.0 0.0 0.00 0.03 0.00 86 1004.8
20200406073638 48 314 0.0 0.0 0.00 0.03 0.00 86 1004.7
20200406073131 48 314 0.0 0.0 0.00 0.03 0.00 85 1004.7
20200406072629 48 314 0.0 0.0 0.00 0.03 0.00 85 1004.6
20200406072126 48 314 0.0 0.0 0.00 0.03 0.00 85 1004.5
20200406071620 48 314 0.0 0.0 0.00 0.03 0.00 85 1004.5
20200406071118 48 314 0.0 0.0 0.00 0.03 0.00 84 1004.4
20200406070612 49 314 0.0 0.0 0.00 0.03 0.00 84 1004.3
20200406070115 49 314 0.0 0.0 0.00 0.03 0.00 84 1004.2
20200406065613 49 314 0.0 0.0 0.00 0.03 0.03 83 1004.2
20200406065114 49 314 0.0 0.0 0.00 0.03 0.03 81 1004.1
20200406064614 50 314 0.0 0.0 0.00 0.03 0.03 80 1004.0
20200406064113 50 314 0.0 0.0 0.00 0.03 0.03 80 1003.8
20200406063609 50 314 0.0 0.0 0.00 0.03 0.03 80 1003.6
20200406063108 50 314 0.0 0.0 0.00 0.03 0.03 80 1003.5
20200406062608 50 314 0.0 0.0 0.00 0.03 0.03 80 1003.4
20200406062109 50 315 0.0 0.0 0.00 0.03 0.03 79 1003.4
20200406061608 50 315 0.0 0.0 0.00 0.03 0.03 79 1003.3
20200406061110 51 315 0.0 0.0 0.00 0.03 0.03 78 1003.2
20200406060610 51 315 0.0 0.0 0.00 0.03 0.03 78 1003.2
20200406060408 51 315 0.0 0.0 0.00 0.03 0.03 78 1003.1
20200406055608 51 315 0.0 0.0 0.00 0.03 0.03 77 1003.1
20200406055107 52 315 0.0 0.0 0.00 0.03 0.03 76 1003.0
20200406054606 52 315 0.0 0.0 0.00 0.03 0.03 75 1003.0
20200406054126 52 315 0.0 0.0 0.00 0.03 0.03 75 1002.9
20200406053604 53 315 0.0 0.0 0.00 0.03 0.03 74 1002.9
20200406053105 53 318 0.0 0.0 0.00 0.03 0.03 74 1002.9
20200406052603 53 318 0.0 0.0 0.00 0.03 0.03 73 1002.8
20200406052103 53 318 0.0 1.0 0.00 0.03 0.03 73 1002.8
20200406051602 53 318 0.0 2.0 0.00 0.03 0.03 72 1002.7
20200406051059 53 320 0.0 2.0 0.00 0.03 0.03 72 1002.6
20200406050558 53 294 0.0 2.0 0.00 0.03 0.03 71 1002.5
20200406050059 53 278 0.0 1.0 0.00 0.03 0.03 70 1002.4
20200406045623 53 278 0.0 1.0 0.00 0.03 0.03 70 1002.2
20200406045057 53 303 0.0 1.0 0.00 0.03 0.03 70 1002.1
20200406044556 53 303 0.0 1.0 0.00 0.03 0.03 69 1002.0
20200406044051 54 303 0.0 1.0 0.00 0.03 0.03 69 1001.9
20200406043550 54 354 0.0 1.0 0.00 0.03 0.03 69 1001.7
20200406043051 54 354 0.0 1.0 0.00 0.03 0.03 69 1001.7
20200406042550 54 354 0.0 1.0 0.00 0.03 0.03 68 1001.5
20200406042050 54 354 0.0 1.0 0.00 0.03 0.03 68 1001.4
20200406041552 55 354 0.0 1.0 0.00 0.03 0.03 68 1001.4
20200406041047 55 353 0.0 1.0 0.00 0.03 0.03 67 1001.3
20200406040546 55 353 0.0 1.0 0.00 0.03 0.03 67 1001.3
20200406040046 55 353 0.0 1.0 0.00 0.03 0.03 66 1001.2
20200406035547 56 353 0.0 1.0 0.00 0.03 0.03 65 1001.1
20200406035047 56 328 0.0 1.0 0.00 0.03 0.03 65 1001.1
20200406034547 56 355 0.0 1.0 0.00 0.03 0.03 64 1001.0
20200406034043 57 355 0.0 1.0 0.00 0.03 0.03 64 1000.9
20200406033542 57 1 0.0 1.0 0.00 0.03 0.03 63 1000.9
20200406033043 57 4 0.0 2.0 0.00 0.03 0.03 63 1000.7
20200406032544 58 340 1.0 2.0 0.00 0.03 0.03 62 1000.7
20200406032041 58 355 1.0 3.0 0.00 0.03 0.03 61 1000.6
20200406031541 58 20 2.0 3.0 0.00 0.03 0.03 60 1000.6
20200406031041 59 6 2.0 4.0 0.00 0.03 0.03 59 1000.4
20200406030538 59 25 2.0 4.0 0.00 0.03 0.03 58 1000.3
20200406030036 59 359 2.0 4.0 0.00 0.03 0.03 58 1000.3
20200406025536 60 9 3.0 6.0 0.00 0.03 0.03 57 1000.3
20200406025036 60 20 3.0 6.0 0.00 0.03 0.03 56 1000.2
20200406024534 60 27 3.0 7.0 0.00 0.03 0.03 56 1000.2
20200406024032 60 18 3.0 7.0 0.00 0.03 0.03 56 1000.1
20200406023531 60 344 2.0 5.0 0.00 0.03 0.03 55 1000.1
20200406023031 61 4 3.0 9.0 0.00 0.03 0.03 56 999.9
20200406022526 61 1 4.0 9.0 0.00 0.03 0.03 54 999.8
20200406022026 61 10 4.0 9.0 0.00 0.03 0.03 53 999.8
20200406021527 61 342 5.0 12.0 0.00 0.03 0.03 53 999.7
20200406021027 62 25 6.0 12.0 0.00 0.03 0.03 51 999.7
20200406020528 62 354 5.0 10.0 0.00 0.03 0.03 51 999.7
20200406020027 62 23 6.0 13.0 0.00 0.03 0.03 51 999.7
20200406015527 62 43 6.0 13.0 0.00 0.03 0.03 51 999.7
20200406015021 62 36 6.0 12.0 0.00 0.03 0.03 51 999.6
20200406014520 62 11 6.0 12.0 0.00 0.03 0.03 50 999.5
20200406014020 62 46 6.0 12.0 0.00 0.03 0.03 50 999.5
20200406013520 62 13 6.0 9.0 0.00 0.04 0.03 50 999.3
20200406013021 63 359 6.0 13.0 0.00 0.04 0.03 50 999.3
20200406012522 63 6 6.0 13.0 0.00 0.04 0.03 50 999.3
20200406012020 63 30 5.0 12.0 0.00 0.04 0.03 49 999.3
20200406011514 63 2 5.0 12.0 0.00 0.04 0.03 50 999.3
20200406011014 63 340 5.0 13.0 0.00 0.04 0.03 49 999.2
20200406010514 63 131 4.0 13.0 0.00 0.04 0.03 49 999.2
20200406010014 63 18 4.0 10.0 0.00 0.04 0.03 49 999.2
20200406005514 63 42 5.0 9.0 0.00 0.04 0.03 49 999.3
20200406005014 63 23 5.0 9.0 0.00 0.05 0.03 49 999.3
20200406004515 63 328 4.0 10.0 0.00 0.05 0.03 49 999.3
20200406004009 63 297 4.0 10.0 0.00 0.05 0.03 49 999.3
20200406003509 64 330 4.0 8.0 0.00 0.06 0.03 49 999.2
20200406003010 63 332 5.0 12.0 0.00 0.06 0.03 50 999.1
20200406002509 63 328 5.0 12.0 0.00 0.06 0.03 49 999.2
20200406002009 63 352 5.0 12.0 0.00 0.06 0.03 50 999.1
20200406001509 63 25 5.0 11.0 0.00 0.06 0.03 49 999.0
20200406001007 63 348 6.0 11.0 0.00 0.07 0.03 50 999.0
20200406000504 63 15 6.0 13.0 0.00 0.07 0.03 50 998.9
20200406000004 63 310 6.0 13.0 0.00 0.07 0.03 50 998.8
20200405235504 63 31 6.0 13.0 0.00 0.07 0.03 51 998.8
20200405235004 63 338 7.0 15.0 0.00 0.08 0.03 50 999.0
20200405234536 63 32 6.0 15.0 0.00 0.08 0.03 51 998.9
20200405234005 63 314 5.0 12.0 0.00 0.09 0.03 51 998.9
20200405233500 63 1 4.0 10.0 0.00 0.09 0.03 51 998.8
20200405233001 62 357 5.0 12.0 0.00 0.09 0.03 51 998.8
20200405232500 62 320 7.0 14.0 0.00 0.09 0.03 50 998.8
20200405232002 62 359 7.0 16.0 0.00 0.10 0.03 50 998.7
20200405231459 62 349 7.0 16.0 0.00 0.10 0.03 51 998.7
20200405230959 62 335 6.0 13.0 0.00 0.10 0.03 52 998.7
20200405230456 63 344 6.0 12.0 0.00 0.10 0.03 52 998.7
20200405225956 63 341 6.0 12.0 0.00 0.10 0.03 52 998.6
20200405225455 62 352 6.0 12.0 0.00 0.10 0.03 52 998.6
20200405224956 62 40 5.0 12.0 0.00 0.11 0.03 52 998.5
20200405224457 62 12 5.0 13.0 0.00 0.11 0.03 52 998.6
20200405223957 62 11 5.0 13.0 0.00 0.11 0.03 53 998.7
20200405223457 62 349 5.0 10.0 0.00 0.12 0.03 53 998.7
20200405222951 62 21 5.0 11.0 0.00 0.12 0.03 53 998.7
20200405222452 62 21 5.0 11.0 0.00 0.12 0.03 53 998.7
20200405221951 62 336 6.0 12.0 0.00 0.13 0.03 54 998.7